Regional Weather Roundup
Issued by NWS

Home | Current Version | Previous Version | Text Only | Print | Product List | Glossary Off
Versions: 1 2 3 4 5 6 7 8 9 10 11 12 13 14 15 16 17 18 19 20 21 22 23 24 25 26 27 28

000
ASUS45 KGTF 260810
RWRMT
MONTANA HOURLY WEATHER ROUNDUP
NATIONAL WEATHER SERVICE GREAT FALLS MT
200 AM MDT SUN APR 26 2015

NOTE: "FAIR" INDICATES FEW OR NO CLOUDS BELOW 12000 FEET WITH NO
SIGNIFICANT WEATHER AND/OR OBSTRUCTIONS TO VISIBILITY.

MTZ001>007-043-260900-
WEST OF THE DIVIDE

CITY           SKY/WX    TMP DP  RH WIND       PRES   REMARKS
KALISPELL      PTSUNNY   42  30  62 N13       29.93R
MISSOULA       CLOUDY    43  31  62 NW12      29.93R
BUTTE          LGT SNOW  34  32  92 SW6       29.85S FOG     WCI  29
DEER LODGE       N/A     39  30  70 N8        29.92S
EUREKA           N/A     36  30  80 E6        29.99R WCI  31
HAMILTON         N/A     39  34  81 N10       29.90R
LIBBY            N/A     36  30  80 CALM      29.99R
$$

MTZ008-052>055-260900-
SOUTHWEST MONTANA

CITY           SKY/WX    TMP DP  RH WIND       PRES   REMARKS
BOZEMAN        CLOUDY    41  34  76 W7        29.83S
DILLON         CLOUDY    38  32  79 NE8       29.80F
$$

MTZ009-010-012-014-046-048-049-054-260900-
EAST SLOPES AND CENTRAL MONTANA

CITY           SKY/WX    TMP DP  RH WIND       PRES   REMARKS
CUT BANK       CLOUDY    31  25  78 N16       30.03R WCI  20
GREAT FALLS    CLOUDY    33  28  81 NE14      30.00R WCI  23
MALMSTROM AFB  MOCLDY    32  29  89 N10       30.01R WCI  23
HELENA         CLOUDY    41  31  67 N12       29.90S
$$

MTZ011-013-016-021-045-047-050-051-260900-
NORTH CENTRAL MONTANA

CITY           SKY/WX    TMP DP  RH WIND       PRES   REMARKS
HAVRE          CLOUDY    36  29  75 NW10      30.02R WCI  28
LEWISTOWN      CLOUDY    34  30  85 W10       29.95R WCI  26
CHINOOK          N/A     37  30  75 NW6       30.00S
FORT BENTON      N/A     34  28  80 NW7       30.04R WCI  28
$$

MTZ017>020-022>042-056>058-061-062-260900-
EASTERN PLAINS

CITY           SKY/WX    TMP DP  RH WIND       PRES   REMARKS
BAKER          CLOUDY    39  37  92 NW6       29.94R
BILLINGS       MOCLDY    40  35  83 NE5       29.90S
GLASGOW        CLOUDY    38  34  85 NW12      29.95R WCI  30
JORDAN           N/A     32  32 100 W3        29.93R
LIVINGSTON     CLOUDY    41  36  82 E15       29.85R
MILES CITY     CLEAR     41  40  96 CALM      29.92S
SIDNEY         CLEAR     36  34  93 W5        29.94R
WOLF POINT     PTCLDY    39  36  89 W6        29.94R
BIG TIMBER       N/A     39  36  87 NE5       29.90S
FORSYTH          N/A     39  37  93 CALM      29.93R
PLENTYWOOD       N/A     37  36  93 W8        29.92R WCI  31
POPLAR           N/A     39  37  93 CALM      29.94S
$$

REGIONAL REPORTS...DAKOTAS

CITY           SKY/WX    TMP DP  RH WIND       PRES   REMARKS
WILLISTON      PTCLDY    38  35  89 W7        29.92R
MINOT          CLOUDY    47  41  80 SE8       29.92R
DICKINSON      CLOUDY    43  41  93 W9        29.90S
BEACH          PTSUNNY   37  37 100 SW5       29.95R
CROSBY         CLOUDY    41  41 100 W10       29.90R
WATFORD CITY   CLOUDY    43  41  93 W6        29.90S
BISMARCK       LGT RAIN  47  44  90 CALM      29.95R FOG
GRAND FORKS    CLEAR     40  29  64 S6        30.02R
FARGO          CLEAR     44  29  55 SE9       30.02R
BUFFALO SD       N/A     43  39  86 N10       29.84F
RAPID CITY     CLOUDY    44  41  89 N20       29.88R
$$

REGIONAL REPORTS...WYOMING/IDAHO/WASHINGTON

CITY           SKY/WX    TMP DP  RH WIND       PRES   REMARKS
GILLETTE       CLOUDY    39  35  86 N10       29.90F
SHERIDAN       CLOUDY    36  33  89 CALM      29.91R
BUFFALO WY     CLOUDY    39  33  79 N3        29.90F
CODY           CLOUDY    41  30  65 NW5       29.85S
YELLOWSTONE LA   N/A     32  28  85 CALM      29.82F
IDAHO FALLS    CLOUDY    43  35  73 S14       29.77R
SALMON         CLOUDY    39  36  87 SW6       29.85R
BOISE          CLEAR     40  31  70 NW8       29.94R
SPOKANE        MOCLDY    38  33  82 CALM      29.99R
$$

REGIONAL REPORTS...ALBERTA

CITY           SKY/WX    TMP DP  RH WIND       PRES   REMARKS
EDMONTON       CLEAR     28  21  74 SW5       30.08S
CALGARY        PTCLDY    27  23  86 N8        30.06S WCI  18
LETHBRIDGE     CLOUDY    32  27  80 NW15      30.06S WCI  22
MEDICINE HAT   CLOUDY    32  32 100 W12G17    30.04S WCI  23
$$

REGIONAL REPORTS...SASKATCHEWAN

CITY           SKY/WX    TMP DP  RH WIND       PRES   REMARKS
SWIFT CURRENT  CLOUDY    30  28  93 NW21      29.91R WCI  17
REGINA         CLOUDY    37  36  93 SW17G25   29.83R WCI  28
SASKATOON      LGT SNOW  32  30  93 NE18      29.90F WCI  20
$$



USA.gov is the U.S. government's official web portal to all federal, state and local government web resources and services.